Weather History for Bentonville, AR

Change the Weather History Date:

Thursday, November 1, 2012

  Actual Average Record
Temperature  
Mean Temperature 55 °F -  
Max Temperature 73 °F 65 °F 81 °F (1948)
Min Temperature 37 °F 44 °F 19 °F (1993)
Degree Days  
Heating Degree Days 10    
Growing Degree Days 5 (Base 50)    
Moisture  
Dew Point 38 °F    
Average Humidity 62    
Maximum Humidity 93    
Minimum Humidity 29    
Precipitation  
Precipitation 0.00 in - - ()
Sea Level Pressure  
Sea Level Pressure 29.99 in    
Wind  
Wind Speed 2 mph (SW)    
Max Wind Speed 9 mph    
Max Gust Speed -    
Visibility 10 miles    
Events      
Averages and records for this station are not official NWS values.
T = Trace of Precipitation, MM = Missing Value Source: NWS Daily Summary

Daily Weather History Graph

Daily Weather History Graph

Search for Another Location

Airport:

Trip Planner

Search our weather history database for the weather conditions in past years. The results will help you decide how hot, cold, wet, or windy it might be!

Date:

Astronomy

Nov. 01, 2012 Rise Set
Actual Time 7:40 AM CDT 6:19 PM CDT
Civil Twilight 7:13 AM CDT 6:46 PM CDT
Nautical Twilight 6:43 AM CDT 7:17 PM CDT
Astronomical Twilight 6:13 AM CDT 7:47 PM CDT
Moon 8:21 PM CDT (11/1) 10:10 AM CDT (11/1)
Length of Visible Light 11h 32m
Length of Day
10h 39m
Waning Gibbous, 93% of the Moon is Illuminated
Nov 1
Waning Gibbous
Nov 6
Last Quarter
Nov 13
New
Nov 20
First Quarter
Nov 28
Full

Hourly Weather History & Observations

Time (CDT) Temp. Windchill Dew Point Humidity Pressure Visibility Wind Dir Wind Speed Gust Speed Precip Events Conditions
12:15 AM 42.8 °F - 35.6 °F 76% 30.03 in 10.0 mi Calm Calm - N/A   Clear
12:35 AM 42.8 °F - 35.6 °F 76% 30.02 in 10.0 mi Calm Calm - N/A   Clear
12:56 AM 42.8 °F - 35.6 °F 76% 30.02 in 10.0 mi Calm Calm - N/A   Clear
1:15 AM 42.8 °F - 35.6 °F 76% 30.02 in 10.0 mi Calm Calm - N/A   Clear
1:35 AM 41.0 °F - 35.6 °F 81% 30.03 in 10.0 mi Calm Calm - N/A   Clear
1:56 AM 41.0 °F - 35.6 °F 81% 30.03 in 10.0 mi Calm Calm - N/A   Clear
2:15 AM 39.2 °F - 35.6 °F 87% 30.03 in 10.0 mi Calm Calm - N/A   Clear
2:35 AM 39.2 °F - 35.6 °F 87% 30.03 in 10.0 mi Calm Calm - N/A   Clear
2:55 AM 39.2 °F - 35.6 °F 87% 30.03 in 10.0 mi Calm Calm - N/A   Clear
3:15 AM 39.2 °F - 35.6 °F 87% 30.03 in 10.0 mi Calm Calm - N/A   Clear
3:35 AM 39.2 °F - 35.6 °F 87% 30.03 in 10.0 mi Calm Calm - N/A   Clear
4:15 AM 39.2 °F - 35.6 °F 87% 30.03 in 10.0 mi Calm Calm - N/A   Clear
4:35 AM 37.4 °F - 33.8 °F 87% 30.03 in 10.0 mi Calm Calm - N/A   Clear
4:55 AM 39.2 °F - 35.6 °F 87% 30.03 in 10.0 mi Calm Calm - N/A   Clear
5:16 AM 39.2 °F - 35.6 °F 87% 30.03 in 10.0 mi Calm Calm - N/A   Clear
5:35 AM 39.2 °F - 35.6 °F 87% 30.03 in 10.0 mi Calm Calm - N/A   Clear
6:15 AM 39.2 °F - 35.6 °F 87% 30.03 in 10.0 mi Calm Calm - N/A   Clear
6:35 AM 37.4 °F - 35.6 °F 93% 30.03 in 10.0 mi Calm Calm - N/A   Clear
6:55 AM 37.4 °F - 35.6 °F 93% 30.03 in 10.0 mi Calm Calm - N/A   Clear
7:15 AM 37.4 °F - 33.8 °F 87% 30.03 in 10.0 mi Calm Calm - N/A   Clear
7:36 AM 37.4 °F - 33.8 °F 87% 30.03 in 10.0 mi Calm Calm - N/A   Clear
8:35 AM 42.8 °F - 37.4 °F 81% 30.03 in 10.0 mi Calm Calm - N/A   Clear
8:55 AM 46.4 °F 45.2 °F 37.4 °F 71% 30.04 in 10.0 mi SSW 3.5 mph - N/A   Clear
9:15 AM 48.2 °F - 39.2 °F 71% 30.04 in 10.0 mi SSE 3.5 mph - N/A   Clear
9:35 AM 50.0 °F - 39.2 °F 66% 30.04 in 10.0 mi SSE 3.5 mph - N/A   Clear
9:55 AM 53.6 °F - 39.2 °F 58% 30.05 in 10.0 mi SSE 3.5 mph - N/A   Clear
10:15 AM 55.4 °F - 41.0 °F 58% 30.04 in 10.0 mi SSE 3.5 mph - N/A   Clear
10:55 AM 60.8 °F - 41.0 °F 48% 30.04 in 10.0 mi South 5.8 mph - N/A   Clear
11:15 AM 64.4 °F - 41.0 °F 42% 30.04 in 10.0 mi South 3.5 mph - N/A   Clear
11:35 AM 64.4 °F - 41.0 °F 42% 30.03 in 10.0 mi SE 4.6 mph - N/A   Clear
12:15 PM 66.2 °F - 41.0 °F 40% 30.02 in 10.0 mi WSW 3.5 mph - N/A   Clear
12:35 PM 68.0 °F - 41.0 °F 37% 30.01 in 10.0 mi SW 4.6 mph - N/A   Clear
1:15 PM 69.8 °F - 41.0 °F 35% 29.99 in 10.0 mi SSW 6.9 mph - N/A   Clear
1:35 PM 71.6 °F - 39.2 °F 31% 29.99 in 10.0 mi SW 3.5 mph - N/A   Clear
2:35 PM 73.4 °F - 39.2 °F 29% 29.96 in 10.0 mi West 4.6 mph - N/A   Clear
2:55 PM 73.4 °F - 39.2 °F 29% 29.95 in 10.0 mi SSW 3.5 mph - N/A   Clear
3:35 PM 73.4 °F - 39.2 °F 29% 29.94 in 10.0 mi WSW 8.1 mph - N/A   Clear
3:55 PM 73.4 °F - 39.2 °F 29% 29.94 in 10.0 mi West 9.2 mph - N/A   Clear
4:15 PM 73.4 °F - 39.2 °F 29% 29.94 in 10.0 mi WSW 6.9 mph - N/A   Clear
4:55 PM 73.4 °F - 39.2 °F 29% 29.93 in 10.0 mi WSW 6.9 mph - N/A   Clear
5:15 PM 73.4 °F - 39.2 °F 29% 29.93 in 5.0 mi West 6.9 mph - N/A   Clear
5:35 PM 71.6 °F - 39.2 °F 31% 29.93 in 10.0 mi WSW 5.8 mph - N/A   Clear
5:56 PM 69.8 °F - 41.0 °F 35% 29.93 in 10.0 mi WSW 4.6 mph - N/A   Clear
6:15 PM 69.8 °F - 41.0 °F 35% 29.94 in 10.0 mi West 3.5 mph - N/A   Clear
6:35 PM 66.2 °F - 39.2 °F 37% 29.94 in 10.0 mi WSW 3.5 mph - N/A   Clear
7:15 PM 59.0 °F - 41.0 °F 51% 29.95 in 10.0 mi SW 3.5 mph - N/A   Clear
7:55 PM 57.2 °F - 39.2 °F 51% 29.95 in 10.0 mi SSW 3.5 mph - N/A   Clear
8:16 PM 55.4 °F - 41.0 °F 58% 29.95 in 10.0 mi West 3.5 mph - N/A   Clear
8:35 PM 55.4 °F - 41.0 °F 58% 29.95 in 10.0 mi West 4.6 mph - N/A   Clear
8:55 PM 55.4 °F - 41.0 °F 58% 29.95 in 10.0 mi WSW 3.5 mph - N/A   Clear
9:16 PM 53.6 °F - 41.0 °F 62% 29.95 in 10.0 mi SW 4.6 mph - N/A   Clear
9:35 PM 53.6 °F - 39.2 °F 58% 29.95 in 10.0 mi Calm Calm - N/A   Clear
9:55 PM 51.8 °F - 39.2 °F 62% 29.95 in 10.0 mi SW 3.5 mph - N/A   Clear
10:35 PM 51.8 °F - 39.2 °F 62% 29.95 in 10.0 mi Calm Calm - N/A   Clear
10:55 PM 51.8 °F - 39.2 °F 62% 29.95 in 10.0 mi Calm Calm - N/A   Clear
11:15 PM 50.0 °F - 41.0 °F 71% 29.96 in 10.0 mi Calm Calm - N/A   Clear
11:36 PM 50.0 °F - 41.0 °F 71% 29.96 in 10.0 mi ENE 3.5 mph - N/A   Clear
11:55 PM 48.2 °F - 41.0 °F 76% 29.96 in 10.0 mi East 4.6 mph - N/A   Clear